Location: Hanover
(52.3667°N, 9.7167°E)
Time: 04:49:57
(UTC+02:00)

ARIANE 6 FM1 Upper Stage - Pass Details

Date: 21 September 2024
Orbit: 564 x 594 km, 62.0° (Epoch: 06 October)

Event Time Altitude Azimuth Distance (km) Brightness Sun altitude
Rises 23:37:50 0° 269° (W) 2,802 6.6 -33.7°
Reaches altitude 10° 23:40:19 10° 281° (WNW) 1,910 5.8 -33.9°
Enters shadow 23:40:36 12° 284° (WNW) 1,813 5.7 -33.9°
